Orbital Elements at Epoch 2459000.5 (2020-May-31.0) TDB
Reference: JPL 18 (heliocentric ecliptic J2000)
Element | Value | Uncertainty (1-sigma) | Units |
e | .2244065100971543 | 3.1134e-08 | |
a | 2.337941584584869 | 7.6046e-09 | au |
q | 1.813292272777167 | 7.4611e-08 | au |
i | 4.914270363304498 | 5.0476e-06 | deg |
node | 344.3885471766863 | 3.7889e-05 | deg |
peri | 69.76076947213811 | 4.0234e-05 | deg |
M | 30.83441052943468 | 1.1342e-05 | deg |
tp | 2458888.663888080197 (2020-Feb-09.16388808) | 4.1062e-05 | TDB |
period | 1305.716554973402 3.57 | 6.3706e-06 1.744e-08 | d yr |
n | .2757106805675242 | 1.3452e-09 | deg/d |
Q | 2.86259089639257 | 9.3111e-09 | au |
|
| | Orbit Determination Parameters
Additional Information
|